Weather Roundup
Issued by NWS

Home | Current Version | Previous Version | Text Only | Print | Product List | Glossary On
Versions: 1 2 3 4 5 6 7 8 9 10 11 12 13 14 15 16 17 18 19 20 21 22 23 24 25 26 27 28 29 30 31 32 33 34 35 36 37 38 39 40 41 42 43 44 45 46 47 48 49 50
635
NZUS93 KARX 241659
HRRWXR

CURRENT HOURLY OBSERVATIONS ACROSS
MUCH OF THE UPPER MISSISSIPPI VALLEY
NATIONAL WEATHER SERVICE LA CROSSE WI
1200 PM CDT SUN SEP 24 2017


...SOUTHEAST MINNESOTA...


CITY           SKY/WX    TMP DP  RH WIND       PRES   REMARKS
ROCHESTER      SUNNY     85  63  47 S16       29.99F
ROCHESTER/MAYO FAIR      84  61  44 S12G17    29.99F
WINONA         SUNNY     86  63  45 S5        29.98F
AUSTIN         SUNNY     82  63  51 S9        29.98F
ALBERT LEA     SUNNY     88  64  45 S10       29.97S
DODGE CENTER   SUNNY     84  61  45 S15       29.98F
PRESTON        SUNNY     83  61  47 S14G20    30.01F
OWATONNA       SUNNY     84  66  54 S12       29.96F
FARIBAULT      SUNNY     84  66  54 S13       29.95F
$$

...ELSEWHERE IN MINNESOTA...


CITY           SKY/WX    TMP DP  RH WIND       PRES   REMARKS
MINNEAPOLIS    PTSUNNY   86  68  54 S10G18    29.93F
INTNL FALLS    CLOUDY    67  64  90 VRB5      29.85S
DULUTH         CLOUDY    73  67  81 S12       29.94S
RED WING       SUNNY     86  61  42 S7        29.94F
REDWOOD FALLS  PTSUNNY   85  64  49 S20       29.87F
MANKATO        SUNNY     85  67  54 S14       29.93F
WORTHINGTON    SUNNY     83  64  52 S20G28    29.91F
FAIRMONT       SUNNY     85  65  51 S18G24    29.93F
$$

...SOUTHWEST WISCONSIN...


CITY           SKY/WX    TMP DP  RH WIND       PRES   REMARKS
LA CROSSE      SUNNY     87  64  46 S13       29.99F
PRAIRIE DU CHI SUNNY     85  61  43 S5        30.01F
BOSCOBEL       SUNNY     90  61  37 S8G16     30.02F HX  90
LONE ROCK      NOT AVBL
PLATTEVILLE    SUNNY     85  63  47 S14       30.07S
FORT MC COY    SUNNY     86  62  45 S8        30.03S
MAUSTON-NEW LI SUNNY     86  65  49 S9        30.03F
VIROQUA        FAIR      84  63  48 S9        30.05S
WIS DELLS      SUNNY     84  61  44 S10       30.06F
$$

...ELSEWHERE IN WISCONSIN...


CITY           SKY/WX    TMP DP  RH WIND       PRES   REMARKS
MILWAUKEE      MOSUNNY   90  62  39 S12       30.07F HX  90
MADISON        SUNNY     86  63  45 S12       30.05F
GREEN BAY      SUNNY     87  69  54 VRB7      30.05F HX  91
EAU CLAIRE     NOT AVBL
BLACK RVR FLS  FAIR      89  56  32 S8        30.01S
MEDFORD        SUNNY     82  63  51 S13       30.05S
WAUSAU         SUNNY     84  64  50 SW8       30.04S
WIS RAPIDS     SUNNY     87  64  46 SW8       30.05F
MARSHFIELD     SUNNY     85  62  46 S10       30.04F
RICE LAKE      MOSUNNY   83  64  53 S9        30.00S
$$

...NORTHEAST IOWA...


CITY           SKY/WX    TMP DP  RH WIND       PRES   REMARKS
WATERLOO       SUNNY     87  62  43 S14       29.98S
DUBUQUE        SUNNY     82  65  56 S12       30.06F
DECORAH        SUNNY     84  64  51 S13G20    30.00F
MASON CITY     SUNNY     86  63  45 S15G25    29.98F
CHARLES CITY   SUNNY     86  63  45 S8G15     30.00S
OELWEIN        SUNNY     88  63  42 SE15G23   30.01S
$$

...ELSEWHERE IN IOWA...


CITY           SKY/WX    TMP DP  RH WIND       PRES   REMARKS
DES MOINES     MOSUNNY   87  64  46 S12       29.96F
IOWA CITY      SUNNY     87  66  49 SE10      30.03F
FORT DODGE     SUNNY     87  64  46 S12G22    29.95F
MARSHALLTOWN   MOSUNNY   85  66  53 SE7       29.98F
CEDAR RAPIDS   SUNNY     86  64  47 S10       30.01F
$$

...NORTHERN ILLINOIS...


CITY           SKY/WX    TMP DP  RH WIND       PRES   REMARKS
CHICAGO-OHARE  MOSUNNY   89  62  40 SW9       30.08F
CHICAGO-MIDWAY MOSUNNY   89  62  40 SW7       30.08F
MOLINE         SUNNY     87  65  47 S7        30.03F
ROCKFORD       SUNNY     86  61  42 S14G22    30.08F
PEORIA         SUNNY     86  67  52 SW8       30.06F
$$

NOTE: "FAIR" INDICATES FEW OR NO CLOUDS BELOW 12,000 FEET WITH NO
SIGNIFICANT WEATHER AND/OR OBSTRUCTIONS TO VISIBILITY. WIND
SPEEDS ARE IN MILES-PER-HOUR.




USA.gov is the U.S. government's official web portal to all federal, state and local government web resources and services.